Flag for South Africa Weather past 2 weeks in Vereeniging, South Africa

Now
68 °F

Mild.


Feels Like: 68 °F
Forecast: 57 / 81 °F
Wind: 8 mph from North

Location: Vereeniging

Current Time: Sep 17, 2014 at 7:20:44 PM

Latest Report: Sep 17, 2014 at 7:00 PM


Visibility: N/A

Pressure: 30.12 "Hg

Humidity: 17%

Dew point: 21 °F

Location of VereenigingLocation

Historic Weather in Vereeniging — Graph

°F

Vereeniging temperature yesterday

Maximum temperature yesterday: 82 °F (at 3:00 PM)
Minimum temperature yesterday: 45 °F (at 6:00 AM)
Average temperature yesterday: 65 °F

Past Weeks' High & Low Weather Summary

 TemperatureHumidityPressure
High82 °F (Sep 10, 4:00 PM)76% (Sep 14, 6:00 AM)30.51 "Hg (Sep 14, 6:00 AM)
Low32 °F (Sep 4, 6:00 AM)6% (Sep 8, 2:00 PM)30.09 "Hg (Sep 17, 3:00 PM)
Average62 °F28%30.34 "Hg
* Reported Sep 2 6:00 PM — Sep 17 6:00 PM, Vereeniging, Weather by CustomWeather, © 2014

Note: Actual official high and low records may vary slightly from our data, if they occured in-between our weather recording intervals... More about our weather records

Advertising

Vereeniging weather history for previous 24 hours

 ConditionsComfort  
Time TempWeatherWind HumidityBarometerVisibility
6:00 PM
Sep 17
73 °FMild.7 mph13%30.09 "HgN/A
5:00 PM79 °FPleasantly warm.8 mph10%30.09 "HgN/A
4:00 PM82 °FPleasantly warm.6 mph9%30.09 "HgN/A
3:00 PM81 °FPleasantly warm.10 mph10%30.09 "HgN/A
2:00 PM82 °FPleasantly warm.8 mph10%30.12 "HgN/A
1:00 PM82 °FPleasantly warm.8 mph12%30.15 "HgN/A
12:00 PM81 °FPleasantly warm.5 mph12%30.15 "HgN/A
11:00 AM79 °FPleasantly warm.7 mph15%30.21 "HgN/A
10:00 AM75 °FMild.12 mph16%30.21 "HgN/A
9:00 AM72 °FMild.6 mph17%30.24 "HgN/A
8:00 AM64 °FMild.6 mph26%30.24 "HgN/A
7:00 AM54 °FCool.3 mph44%30.24 "HgN/A
6:00 AM50 °FCool.5 mph43%30.24 "HgN/A
5:00 AM52 °FCool.5 mph41%30.21 "HgN/A
4:00 AM55 °FRefreshingly cool.7 mph36%30.21 "HgN/A
3:00 AM55 °FRefreshingly cool.3 mph36%30.21 "HgN/A
1:00 AM59 °FRefreshingly cool.6 mph31%30.24 "HgN/A
12:00 AM57 °FRefreshingly cool.6 mph33%30.27 "HgN/A
11:00 PM
Sep 16
55 °FRefreshingly cool.5 mph38%30.27 "HgN/A
10:00 PM63 °FMild.6 mph25%30.27 "HgN/A
9:00 PM64 °FMild.6 mph26%30.27 "HgN/A
8:00 PM66 °FMild.7 mph24%30.27 "HgN/A
7:00 PM68 °FMild.8 mph23%30.24 "HgN/A
Weather by CustomWeather, © 2014

See weather overviewHow to use our weather pages